| time (UTC) | temp F | wind direction | speed MPH | gust MPH | rain 1hr in | rain 24hr in | rain mn in | humidity % | barometer mb |
| 20260906203011 | 68 | 81 | 0.0 | 7.0 | 0.00 | 0.24 | 0.20 | 66 | 1013.1 |
| 20260906202506 | 68 | 192 | 1.0 | 4.0 | 0.00 | 0.24 | 0.20 | 70 | 1013.1 |
| 20260906202007 | 67 | 126 | 0.0 | 5.0 | 0.00 | 0.24 | 0.20 | 72 | 1013.2 |
| 20260906201506 | 67 | 122 | 1.0 | 5.0 | 0.00 | 0.24 | 0.20 | 72 | 1013.2 |
| 20260906201005 | 66 | 281 | 0.0 | 0.0 | 0.00 | 0.24 | 0.20 | 78 | 1013.2 |
| 20260906200505 | 66 | 161 | 0.0 | 2.0 | 0.00 | 0.24 | 0.20 | 76 | 1013.1 |
| 20260906200005 | 66 | 55 | 0.0 | 4.0 | 0.00 | 0.25 | 0.20 | 77 | 1013.1 |
| 20260906195505 | 66 | 9 | 0.0 | 4.0 | 0.00 | 0.25 | 0.20 | 77 | 1013.1 |
| 20260906195006 | 66 | 63 | 0.0 | 0.0 | 0.00 | 0.25 | 0.20 | 78 | 1013.1 |
| 20260906194511 | 67 | 65 | 0.0 | 1.0 | 0.00 | 0.25 | 0.20 | 77 | 1013.0 |
| 20260906194004 | 67 | 142 | 0.0 | 4.0 | 0.00 | 0.25 | 0.20 | 73 | 1013.0 |
| 20260906193504 | 67 | 178 | 1.0 | 6.0 | 0.00 | 0.25 | 0.20 | 75 | 1013.0 |
| 20260906193006 | 67 | 83 | 0.0 | 10.0 | 0.00 | 0.25 | 0.20 | 71 | 1013.0 |
| 20260906192503 | 67 | 95 | 0.0 | 2.0 | 0.00 | 0.25 | 0.20 | 72 | 1013.0 |
| 20260906192002 | 67 | 348 | 0.0 | 4.0 | 0.00 | 0.25 | 0.20 | 75 | 1013.0 |
| 20260906191506 | 67 | 175 | 0.0 | 7.0 | 0.00 | 0.25 | 0.20 | 74 | 1013.1 |
| 20260906191002 | 68 | 53 | 0.0 | 8.0 | 0.00 | 0.25 | 0.20 | 72 | 1013.1 |
| 20260906190504 | 68 | 34 | 2.0 | 8.0 | 0.00 | 0.25 | 0.20 | 72 | 1013.0 |
| 20260906190009 | 68 | 276 | 2.0 | 6.0 | 0.00 | 0.25 | 0.20 | 75 | 1013.1 |
| 20260906185501 | 67 | 85 | 0.0 | 5.0 | 0.00 | 0.25 | 0.20 | 74 | 1013.2 |
| 20260906185001 | 68 | 82 | 0.0 | 5.0 | 0.00 | 0.25 | 0.20 | 70 | 1013.2 |
| 20260906184501 | 69 | 42 | 2.0 | 5.0 | 0.00 | 0.25 | 0.20 | 73 | 1013.3 |
| 20260906184001 | 68 | 175 | 1.0 | 6.0 | 0.00 | 0.25 | 0.20 | 74 | 1013.4 |
| 20260906183501 | 68 | 81 | 1.0 | 5.0 | 0.00 | 0.25 | 0.20 | 78 | 1013.4 |
| 20260906183105 | 68 | 225 | 0.0 | 6.0 | 0.00 | 0.25 | 0.20 | 74 | 1013.5 |
| 20260906183001 | 68 | 172 | 0.0 | 6.0 | 0.00 | 0.25 | 0.20 | 74 | 1013.5 |
| 20260906182604 | 68 | 240 | 0.0 | 7.0 | 0.00 | 0.25 | 0.20 | 71 | 1013.5 |
| 20260906182103 | 68 | 63 | 2.0 | 7.0 | 0.00 | 0.25 | 0.20 | 73 | 1013.5 |
| 20260906181632 | 68 | 307 | 1.0 | 5.0 | 0.00 | 0.25 | 0.20 | 75 | 1013.6 |
| 20260906181059 | 69 | 38 | 1.0 | 9.0 | 0.00 | 0.25 | 0.20 | 76 | 1013.6 |
| 20260906180559 | 69 | 121 | 3.0 | 9.0 | 0.00 | 0.25 | 0.20 | 78 | 1013.7 |
| 20260906180100 | 68 | 71 | 1.0 | 6.0 | 0.00 | 0.25 | 0.20 | 80 | 1013.7 |
| 20260906175557 | 67 | 325 | 0.0 | 6.0 | 0.00 | 0.25 | 0.20 | 79 | 1013.7 |
| 20260906175056 | 66 | 311 | 0.0 | 2.0 | 0.00 | 0.25 | 0.20 | 84 | 1013.7 |
| 20260906174601 | 65 | 49 | 0.0 | 5.0 | 0.00 | 0.25 | 0.20 | 78 | 1013.6 |
| 20260906174057 | 66 | 329 | 1.0 | 5.0 | 0.00 | 0.25 | 0.20 | 81 | 1013.7 |
| 20260906173555 | 66 | 115 | 1.0 | 4.0 | 0.00 | 0.25 | 0.20 | 86 | 1013.8 |
| 20260906173102 | 66 | 194 | 0.0 | 4.0 | 0.00 | 0.25 | 0.20 | 86 | 1013.9 |
| 20260906172556 | 66 | 247 | 0.0 | 4.0 | 0.00 | 0.25 | 0.20 | 87 | 1013.9 |
| 20260906172059 | 66 | 134 | 0.0 | 1.0 | 0.00 | 0.25 | 0.20 | 88 | 1014.0 |
| 20260906171555 | 65 | 114 | 0.0 | 6.0 | 0.00 | 0.25 | 0.20 | 86 | 1014.1 |
| 20260906171054 | 65 | 98 | 0.0 | 6.0 | 0.00 | 0.25 | 0.20 | 83 | 1014.1 |
| 20260906170554 | 64 | 161 | 0.0 | 2.0 | 0.00 | 0.25 | 0.20 | 90 | 1014.1 |
| 20260906170054 | 63 | 5 | 0.0 | 0.0 | 0.00 | 0.25 | 0.20 | 91 | 1014.2 |
| 20260906165553 | 63 | 5 | 0.0 | 1.0 | 0.00 | 0.25 | 0.20 | 89 | 1014.3 |
| 20260906165053 | 63 | 26 | 0.0 | 2.0 | 0.00 | 0.25 | 0.20 | 86 | 1014.4 |
| 20260906164554 | 64 | 25 | 0.0 | 2.0 | 0.00 | 0.25 | 0.20 | 85 | 1014.4 |
| 20260906164053 | 65 | 324 | 0.0 | 1.0 | 0.00 | 0.25 | 0.20 | 88 | 1014.4 |
| 20260906163553 | 65 | 185 | 0.0 | 1.0 | 0.02 | 0.25 | 0.20 | 89 | 1014.5 |
| 20260906163101 | 65 | 146 | 0.0 | 7.0 | 0.03 | 0.25 | 0.20 | 87 | 1014.5 |
| 20260906162552 | 66 | 111 | 1.0 | 7.0 | 0.04 | 0.25 | 0.20 | 91 | 1014.5 |
| 20260906162054 | 65 | 98 | 0.0 | 2.0 | 0.04 | 0.25 | 0.20 | 93 | 1014.5 |
| 20260906161559 | 64 | 226 | 1.0 | 2.0 | 0.04 | 0.25 | 0.20 | 94 | 1014.6 |
| 20260906161051 | 63 | 193 | 0.0 | 1.0 | 0.04 | 0.25 | 0.20 | 95 | 1014.7 |
| 20260906160551 | 62 | 193 | 0.0 | 1.0 | 0.04 | 0.25 | 0.20 | 95 | 1014.7 |
| 20260906160051 | 62 | 193 | 0.0 | 1.0 | 0.04 | 0.25 | 0.20 | 94 | 1014.7 |
| 20260906155550 | 61 | 211 | 0.0 | 2.0 | 0.04 | 0.25 | 0.20 | 94 | 1014.8 |
| 20260906155050 | 61 | 211 | 0.0 | 2.0 | 0.04 | 0.25 | 0.20 | 94 | 1014.8 |
| 20260906154551 | 61 | 220 | 0.0 | 1.0 | 0.04 | 0.25 | 0.20 | 93 | 1014.9 |
| 20260906154050 | 61 | 194 | 0.0 | 5.0 | 0.04 | 0.25 | 0.20 | 89 | 1014.9 |
| 20260906153550 | 62 | 76 | 0.0 | 7.0 | 0.02 | 0.23 | 0.18 | 87 | 1015.0 |
| 20260906153050 | 64 | 101 | 2.0 | 7.0 | 0.01 | 0.22 | 0.17 | 83 | 1015.1 |
| 20260906152549 | 65 | 331 | 1.0 | 4.0 | 0.00 | 0.21 | 0.16 | 78 | 1014.9 |
| 20260906152049 | 67 | 211 | 0.0 | 6.0 | 0.00 | 0.21 | 0.16 | 77 | 1014.8 |
| 20260906151546 | 68 | 90 | 0.0 | 6.0 | 0.00 | 0.21 | 0.16 | 83 | 1014.8 |
| 20260906151044 | 65 | 75 | 0.0 | 6.0 | 0.00 | 0.21 | 0.16 | 86 | 1014.9 |
| 20260906150546 | 65 | 338 | 2.0 | 6.0 | 0.00 | 0.21 | 0.16 | 87 | 1014.9 |
| 20260906150042 | 64 | 172 | 0.0 | 5.0 | 0.00 | 0.21 | 0.16 | 90 | 1015.0 |
| 20260906145541 | 62 | 11 | 2.0 | 5.0 | 0.00 | 0.21 | 0.16 | 92 | 1015.1 |
| 20260906145041 | 62 | 280 | 0.0 | 0.0 | 0.00 | 0.21 | 0.16 | 91 | 1015.1 |
| 20260906144541 | 62 | 294 | 0.0 | 2.0 | 0.00 | 0.21 | 0.16 | 90 | 1015.1 |
| 20260906144043 | 63 | 329 | 0.0 | 7.0 | 0.00 | 0.21 | 0.16 | 90 | 1015.1 |
| 20260906143540 | 63 | 142 | 2.0 | 7.0 | 0.00 | 0.21 | 0.16 | 91 | 1015.1 |
| 20260906143047 | 63 | 85 | 2.0 | 6.0 | 0.00 | 0.21 | 0.16 | 92 | 1015.1 |
| 20260906142537 | 62 | 73 | 0.0 | 6.0 | 0.00 | 0.21 | 0.16 | 92 | 1015.1 |
| 20260906142038 | 62 | 343 | 0.0 | 6.0 | 0.00 | 0.21 | 0.16 | 93 | 1015.2 |
| 20260906141536 | 61 | 42 | 0.0 | 2.0 | 0.00 | 0.21 | 0.16 | 93 | 1015.2 |
| 20260906141036 | 61 | 18 | 0.0 | 0.0 | 0.00 | 0.21 | 0.16 | 93 | 1015.1 |
| 20260906140537 | 62 | 355 | 0.0 | 2.0 | 0.00 | 0.21 | 0.16 | 92 | 1015.2 |
| 20260906140039 | 62 | 104 | 0.0 | 2.0 | 0.00 | 0.21 | 0.16 | 93 | 1015.2 |
| 20260906135535 | 62 | 308 | 0.0 | 2.0 | 0.00 | 0.21 | 0.16 | 94 | 1015.1 |
| 20260906135035 | 61 | 308 | 0.0 | 5.0 | 0.00 | 0.21 | 0.16 | 93 | 1015.1 |
| 20260906134533 | 61 | 30 | 2.0 | 5.0 | 0.00 | 0.21 | 0.16 | 95 | 1015.1 |
| 20260906134033 | 60 | 111 | 0.0 | 6.0 | 0.00 | 0.21 | 0.16 | 94 | 1015.0 |
| 20260906133533 | 60 | 91 | 2.0 | 6.0 | 0.00 | 0.21 | 0.16 | 95 | 1015.0 |
| 20260906133036 | 60 | 74 | 0.0 | 5.0 | 0.00 | 0.21 | 0.16 | 95 | 1014.9 |
| 20260906132531 | 60 | 74 | 0.0 | 2.0 | 0.00 | 0.21 | 0.16 | 96 | 1015.0 |
| 20260906132030 | 60 | 312 | 0.0 | 2.0 | 0.00 | 0.21 | 0.16 | 96 | 1015.0 |
| 20260906131529 | 60 | 112 | 0.0 | 2.0 | 0.00 | 0.21 | 0.16 | 96 | 1015.0 |
| 20260906131029 | 60 | 80 | 0.0 | 2.0 | 0.00 | 0.21 | 0.16 | 96 | 1015.0 |
| 20260906130528 | 60 | 209 | 0.0 | 1.0 | 0.00 | 0.21 | 0.16 | 96 | 1014.9 |
| 20260906130028 | 59 | 209 | 0.0 | 1.0 | 0.00 | 0.21 | 0.16 | 96 | 1014.8 |
| 20260906125528 | 59 | 184 | 0.0 | 4.0 | 0.00 | 0.21 | 0.16 | 96 | 1014.9 |
| 20260906125027 | 59 | 135 | 1.0 | 4.0 | 0.00 | 0.21 | 0.16 | 97 | 1015.0 |
| 20260906124527 | 59 | 9 | 0.0 | 0.0 | 0.00 | 0.21 | 0.16 | 97 | 1015.0 |
| 20260906124027 | 59 | 26 | 0.0 | 0.0 | 0.00 | 0.21 | 0.16 | 97 | 1015.0 |
| 20260906123526 | 59 | 18 | 0.0 | 2.0 | 0.00 | 0.21 | 0.16 | 97 | 1015.0 |
| 20260906123032 | 59 | 59 | 0.0 | 4.0 | 0.00 | 0.21 | 0.16 | 97 | 1015.0 |
| 20260906122528 | 59 | 15 | 1.0 | 4.0 | 0.00 | 0.21 | 0.16 | 97 | 1015.0 |
| 20260906122028 | 59 | 40 | 0.0 | 0.0 | 0.00 | 0.21 | 0.16 | 97 | 1015.0 |
| 20260906121528 | 58 | 41 | 0.0 | 0.0 | 0.00 | 0.21 | 0.16 | 97 | 1014.9 |
| 20260906121024 | 58 | 40 | 0.0 | 1.0 | 0.00 | 0.21 | 0.16 | 97 | 1014.9 |
| 20260906120524 | 58 | 58 | 0.0 | 1.0 | 0.00 | 0.21 | 0.16 | 97 | 1015.0 |
| 20260906120023 | 58 | 31 | 0.0 | 0.0 | 0.00 | 0.21 | 0.16 | 97 | 1014.9 |
| 20260906115525 | 58 | 339 | 0.0 | 0.0 | 0.00 | 0.21 | 0.16 | 97 | 1014.9 |
| 20260906115022 | 58 | 338 | 0.0 | 0.0 | 0.00 | 0.21 | 0.16 | 97 | 1014.8 |
| 20260906114535 | 58 | 343 | 0.0 | 0.0 | 0.00 | 0.21 | 0.16 | 97 | 1014.8 |
| 20260906114022 | 58 | 343 | 0.0 | 0.0 | 0.00 | 0.21 | 0.16 | 97 | 1014.7 |
| 20260906113522 | 58 | 343 | 0.0 | 0.0 | 0.00 | 0.21 | 0.16 | 97 | 1014.7 |
| 20260906113020 | 58 | 343 | 0.0 | 0.0 | 0.00 | 0.21 | 0.16 | 97 | 1014.7 |
| 20260906112519 | 58 | 343 | 0.0 | 0.0 | 0.00 | 0.21 | 0.16 | 97 | 1014.5 |
| 20260906112019 | 58 | 343 | 0.0 | 0.0 | 0.00 | 0.21 | 0.16 | 97 | 1014.4 |
| 20260906111525 | 58 | 343 | 0.0 | 0.0 | 0.00 | 0.21 | 0.16 | 97 | 1014.4 |
| 20260906111017 | 57 | 343 | 0.0 | 0.0 | 0.00 | 0.21 | 0.16 | 97 | 1014.4 |
| 20260906110516 | 57 | 343 | 0.0 | 0.0 | 0.00 | 0.21 | 0.16 | 97 | 1014.3 |
| 20260906110014 | 57 | 343 | 0.0 | 0.0 | 0.00 | 0.21 | 0.16 | 97 | 1014.3 |
| 20260906105615 | 57 | 343 | 0.0 | 0.0 | 0.00 | 0.21 | 0.16 | 97 | 1014.2 |
| 20260906105053 | 57 | 343 | 0.0 | 0.0 | 0.00 | 0.21 | 0.16 | 97 | 1014.1 |
| 20260906104550 | 57 | 343 | 0.0 | 0.0 | 0.00 | 0.21 | 0.16 | 97 | 1014.1 |
| 20260906104050 | 57 | 343 | 0.0 | 0.0 | 0.00 | 0.21 | 0.16 | 97 | 1014.0 |
| 20260906103550 | 57 | 343 | 0.0 | 0.0 | 0.00 | 0.21 | 0.16 | 97 | 1013.9 |
| 20260906103048 | 57 | 343 | 0.0 | 0.0 | 0.00 | 0.21 | 0.16 | 97 | 1013.8 |
| 20260906102549 | 57 | 343 | 0.0 | 0.0 | 0.00 | 0.21 | 0.16 | 97 | 1013.7 |
| 20260906102052 | 57 | 343 | 0.0 | 0.0 | 0.00 | 0.21 | 0.16 | 97 | 1013.7 |
| 20260906101548 | 57 | 343 | 0.0 | 0.0 | 0.00 | 0.21 | 0.16 | 97 | 1013.7 |
| 20260906101050 | 57 | 343 | 0.0 | 0.0 | 0.00 | 0.21 | 0.16 | 97 | 1013.7 |
| 20260906100547 | 57 | 343 | 0.0 | 0.0 | 0.00 | 0.21 | 0.16 | 97 | 1013.7 |
| 20260906100046 | 57 | 343 | 0.0 | 0.0 | 0.01 | 0.21 | 0.16 | 97 | 1013.7 |
| 20260906095545 | 57 | 343 | 0.0 | 0.0 | 0.01 | 0.21 | 0.16 | 97 | 1013.5 |
| 20260906095044 | 57 | 343 | 0.0 | 0.0 | 0.01 | 0.21 | 0.16 | 97 | 1013.5 |
| 20260906094549 | 57 | 343 | 0.0 | 0.0 | 0.01 | 0.21 | 0.16 | 97 | 1013.5 |
| 20260906094042 | 57 | 343 | 0.0 | 0.0 | 0.01 | 0.21 | 0.16 | 97 | 1013.4 |
| 20260906093542 | 57 | 343 | 0.0 | 0.0 | 0.01 | 0.21 | 0.16 | 97 | 1013.4 |
| 20260906093041 | 57 | 33 | 0.0 | 0.0 | 0.02 | 0.21 | 0.16 | 97 | 1013.4 |
| 20260906092541 | 58 | 33 | 0.0 | 0.0 | 0.04 | 0.21 | 0.16 | 97 | 1013.3 |
| 20260906092043 | 58 | 33 | 0.0 | 0.0 | 0.06 | 0.21 | 0.16 | 97 | 1013.3 |
| 20260906091546 | 58 | 33 | 0.0 | 0.0 | 0.08 | 0.21 | 0.16 | 97 | 1013.3 |
| 20260906091040 | 58 | 33 | 0.0 | 0.0 | 0.10 | 0.21 | 0.16 | 97 | 1013.3 |
| 20260906090540 | 58 | 33 | 0.0 | 0.0 | 0.12 | 0.21 | 0.16 | 97 | 1013.3 |
| 20260906090042 | 58 | 33 | 0.0 | 0.0 | 0.12 | 0.20 | 0.15 | 97 | 1013.3 |
| 20260906085539 | 58 | 33 | 0.0 | 0.0 | 0.13 | 0.20 | 0.15 | 97 | 1013.3 |
| 20260906085042 | 58 | 33 | 0.0 | 0.0 | 0.13 | 0.20 | 0.15 | 97 | 1013.4 |
| 20260906084539 | 58 | 33 | 0.0 | 0.0 | 0.13 | 0.20 | 0.15 | 97 | 1013.3 |
| 20260906084039 | 58 | 33 | 0.0 | 0.0 | 0.14 | 0.20 | 0.15 | 97 | 1013.3 |
| 20260906083538 | 58 | 33 | 0.0 | 2.0 | 0.14 | 0.20 | 0.15 | 97 | 1013.3 |
| 20260906083038 | 58 | 33 | 0.0 | 4.0 | 0.13 | 0.19 | 0.14 | 97 | 1013.2 |
| 20260906082536 | 58 | 47 | 0.0 | 4.0 | 0.11 | 0.17 | 0.12 | 97 | 1013.2 |
| 20260906082036 | 58 | 92 | 0.0 | 2.0 | 0.08 | 0.14 | 0.09 | 97 | 1013.3 |
| 20260906081540 | 58 | 44 | 0.0 | 2.0 | 0.07 | 0.13 | 0.08 | 97 | 1013.4 |
| 20260906081034 | 58 | 327 | 0.0 | 0.0 | 0.05 | 0.11 | 0.06 | 97 | 1013.0 |
| 20260906080534 | 59 | 157 | 0.0 | 2.0 | 0.03 | 0.09 | 0.04 | 97 | 1012.8 |
| 20260906080035 | 59 | 99 | 0.0 | 2.0 | 0.02 | 0.08 | 0.03 | 97 | 1013.1 |
| 20260906075532 | 59 | 13 | 0.0 | 2.0 | 0.01 | 0.07 | 0.02 | 97 | 1013.2 |
| 20260906075031 | 59 | 40 | 0.0 | 2.0 | 0.01 | 0.07 | 0.02 | 97 | 1013.1 |
| 20260906074531 | 59 | 355 | 0.0 | 0.0 | 0.01 | 0.07 | 0.02 | 97 | 1013.0 |
| 20260906074029 | 59 | 355 | 0.0 | 0.0 | 0.00 | 0.06 | 0.01 | 97 | 1012.9 |
| 20260906073531 | 59 | 346 | 0.0 | 0.0 | 0.00 | 0.06 | 0.01 | 97 | 1012.9 |
| 20260906073028 | 59 | 234 | 0.0 | 0.0 | 0.00 | 0.06 | 0.01 | 97 | 1012.8 |
| 20260906072527 | 59 | 235 | 0.0 | 0.0 | 0.00 | 0.06 | 0.01 | 97 | 1012.8 |
| 20260906072026 | 59 | 137 | 0.0 | 0.0 | 0.00 | 0.06 | 0.01 | 97 | 1012.7 |
| 20260906071528 | 60 | 137 | 0.0 | 1.0 | 0.00 | 0.06 | 0.01 | 97 | 1012.7 |
| 20260906071025 | 60 | 137 | 0.0 | 1.0 | 0.00 | 0.06 | 0.01 | 97 | 1012.7 |
| 20260906070529 | 60 | 137 | 0.0 | 0.0 | 0.00 | 0.06 | 0.01 | 97 | 1012.5 |
| 20260906070025 | 60 | 137 | 0.0 | 0.0 | 0.00 | 0.06 | 0.01 | 97 | 1012.6 |
| 20260906065525 | 60 | 137 | 0.0 | 0.0 | 0.00 | 0.06 | 0.01 | 97 | 1012.6 |
| 20260906065024 | 60 | 137 | 0.0 | 0.0 | 0.00 | 0.06 | 0.01 | 97 | 1012.5 |
| 20260906064527 | 60 | 137 | 0.0 | 0.0 | 0.00 | 0.06 | 0.01 | 97 | 1012.5 |
| 20260906064026 | 60 | 137 | 0.0 | 0.0 | 0.00 | 0.06 | 0.01 | 97 | 1012.4 |
| 20260906063522 | 60 | 137 | 0.0 | 0.0 | 0.00 | 0.06 | 0.01 | 97 | 1012.5 |
| 20260906063022 | 60 | 137 | 0.0 | 0.0 | 0.00 | 0.06 | 0.01 | 97 | 1012.4 |
| 20260906062521 | 60 | 137 | 0.0 | 0.0 | 0.00 | 0.06 | 0.01 | 97 | 1012.5 |
| 20260906062022 | 60 | 137 | 0.0 | 0.0 | 0.00 | 0.06 | 0.01 | 97 | 1012.4 |
| 20260906061521 | 60 | 137 | 0.0 | 0.0 | 0.00 | 0.06 | 0.01 | 97 | 1012.5 |
| 20260906061021 | 60 | 137 | 0.0 | 0.0 | 0.00 | 0.06 | 0.01 | 97 | 1012.5 |
| 20260906060520 | 60 | 100 | 0.0 | 0.0 | 0.00 | 0.06 | 0.01 | 97 | 1012.5 |
| 20260906060020 | 60 | 224 | 0.0 | 0.0 | 0.00 | 0.06 | 0.01 | 97 | 1012.5 |
| 20260906055519 | 61 | 220 | 0.0 | 0.0 | 0.00 | 0.06 | 0.01 | 97 | 1012.5 |
| 20260906055023 | 61 | 218 | 0.0 | 0.0 | 0.00 | 0.06 | 0.01 | 97 | 1012.6 |
| 20260906054518 | 61 | 218 | 0.0 | 0.0 | 0.00 | 0.06 | 0.01 | 97 | 1012.6 |
| 20260906054019 | 61 | 218 | 0.0 | 0.0 | 0.01 | 0.06 | 0.01 | 97 | 1012.5 |
| 20260906053520 | 61 | 218 | 0.0 | 0.0 | 0.01 | 0.06 | 0.01 | 97 | 1012.5 |
| 20260906053017 | 61 | 218 | 0.0 | 0.0 | 0.01 | 0.06 | 0.01 | 97 | 1012.5 |
| 20260906052522 | 61 | 218 | 0.0 | 0.0 | 0.01 | 0.06 | 0.01 | 97 | 1012.6 |
| 20260906052019 | 61 | 218 | 0.0 | 0.0 | 0.01 | 0.06 | 0.01 | 97 | 1012.6 |
| 20260906051518 | 61 | 218 | 0.0 | 0.0 | 0.01 | 0.06 | 0.01 | 97 | 1012.5 |
| 20260906051116 | 61 | 218 | 0.0 | 0.0 | 0.01 | 0.06 | 0.01 | 97 | 1012.6 |
| 20260906050516 | 61 | 218 | 0.0 | 0.0 | 0.01 | 0.06 | 0.01 | 97 | 1012.6 |
| 20260906050017 | 61 | 218 | 0.0 | 0.0 | 0.01 | 0.06 | 0.01 | 97 | 1012.7 |
| 20260906045519 | 61 | 218 | 0.0 | 0.0 | 0.01 | 0.06 | 0.01 | 97 | 1012.6 |
| 20260906045019 | 61 | 218 | 0.0 | 0.0 | 0.01 | 0.06 | 0.01 | 97 | 1012.7 |
| 20260906044514 | 61 | 218 | 0.0 | 0.0 | 0.01 | 0.06 | 0.01 | 97 | 1012.7 |
| 20260906044016 | 61 | 218 | 0.0 | 0.0 | 0.00 | 0.05 | 0.00 | 97 | 1012.5 |
| 20260906043516 | 61 | 218 | 0.0 | 0.0 | 0.00 | 0.05 | 0.00 | 97 | 1012.6 |
| 20260906043014 | 61 | 218 | 0.0 | 0.0 | 0.00 | 0.05 | 0.00 | 97 | 1012.5 |
| 20260906042512 | 61 | 218 | 0.0 | 0.0 | 0.00 | 0.05 | 0.00 | 97 | 1012.5 |
| 20260906042012 | 62 | 218 | 0.0 | 0.0 | 0.00 | 0.05 | 0.00 | 97 | 1012.6 |
| 20260906041515 | 62 | 218 | 0.0 | 0.0 | 0.00 | 0.05 | 0.00 | 97 | 1012.6 |
| 20260906041014 | 62 | 218 | 0.0 | 0.0 | 0.00 | 0.05 | 0.00 | 97 | 1012.6 |
| 20260906040510 | 62 | 218 | 0.0 | 0.0 | 0.01 | 0.05 | 0.00 | 97 | 1012.5 |
| 20260906040024 | 62 | 218 | 0.0 | 0.0 | 0.01 | 0.05 | 0.05 | 97 | 1012.5 |
| 20260906035510 | 62 | 218 | 0.0 | 0.0 | 0.01 | 0.05 | 0.05 | 97 | 1012.5 |
| 20260906035010 | 62 | 218 | 0.0 | 0.0 | 0.01 | 0.05 | 0.05 | 97 | 1012.5 |
| 20260906034512 | 62 | 218 | 0.0 | 0.0 | 0.01 | 0.05 | 0.05 | 97 | 1012.5 |
| 20260906034010 | 62 | 218 | 0.0 | 0.0 | 0.01 | 0.05 | 0.05 | 97 | 1012.5 |
| 20260906033508 | 62 | 218 | 0.0 | 0.0 | 0.01 | 0.05 | 0.05 | 97 | 1012.5 |
| 20260906033009 | 62 | 127 | 0.0 | 0.0 | 0.01 | 0.05 | 0.05 | 97 | 1012.5 |
| 20260906032507 | 62 | 127 | 0.0 | 0.0 | 0.01 | 0.05 | 0.05 | 97 | 1012.4 |
| 20260906032008 | 62 | 127 | 0.0 | 0.0 | 0.02 | 0.05 | 0.05 | 97 | 1012.4 |
| 20260906031507 | 62 | 127 | 0.0 | 0.0 | 0.02 | 0.05 | 0.05 | 97 | 1012.3 |
| 20260906031007 | 62 | 127 | 0.0 | 0.0 | 0.02 | 0.05 | 0.05 | 96 | 1012.3 |
| 20260906030507 | 62 | 124 | 0.0 | 0.0 | 0.02 | 0.04 | 0.04 | 96 | 1012.2 |
| 20260906030007 | 62 | 124 | 0.0 | 0.0 | 0.02 | 0.04 | 0.04 | 96 | 1012.3 |
| 20260906025510 | 62 | 124 | 0.0 | 0.0 | 0.02 | 0.04 | 0.04 | 97 | 1012.3 |
| 20260906025006 | 62 | 139 | 0.0 | 0.0 | 0.02 | 0.04 | 0.04 | 97 | 1012.3 |
| 20260906024505 | 62 | 139 | 0.0 | 0.0 | 0.02 | 0.04 | 0.04 | 97 | 1012.2 |
| 20260906024006 | 62 | 64 | 0.0 | 0.0 | 0.02 | 0.04 | 0.04 | 97 | 1012.2 |
| 20260906023508 | 62 | 64 | 0.0 | 0.0 | 0.02 | 0.04 | 0.04 | 96 | 1012.3 |
| 20260906023005 | 62 | 64 | 0.0 | 2.0 | 0.02 | 0.04 | 0.04 | 96 | 1012.3 |
| 20260906022506 | 63 | 105 | 0.0 | 2.0 | 0.02 | 0.04 | 0.04 | 96 | 1012.2 |
| 20260906022005 | 63 | 203 | 0.0 | 0.0 | 0.01 | 0.03 | 0.03 | 96 | 1012.2 |
| 20260906021505 | 62 | 202 | 0.0 | 0.0 | 0.01 | 0.03 | 0.03 | 96 | 1012.2 |
| 20260906021004 | 62 | 202 | 0.0 | 0.0 | 0.01 | 0.03 | 0.03 | 96 | 1012.2 |
| 20260906020504 | 62 | 201 | 0.0 | 0.0 | 0.00 | 0.02 | 0.02 | 96 | 1012.3 |
| 20260906020004 | 62 | 202 | 0.0 | 0.0 | 0.00 | 0.02 | 0.02 | 96 | 1012.2 |
| 20260906015503 | 63 | 201 | 0.0 | 0.0 | 0.00 | 0.02 | 0.02 | 96 | 1012.2 |
| 20260906015004 | 62 | 202 | 0.0 | 0.0 | 0.00 | 0.02 | 0.02 | 96 | 1012.3 |
| 20260906014510 | 62 | 202 | 0.0 | 0.0 | 0.01 | 0.02 | 0.02 | 96 | 1012.3 |
| 20260906014003 | 63 | 202 | 0.0 | 0.0 | 0.01 | 0.02 | 0.02 | 96 | 1012.3 |
| 20260906013503 | 63 | 202 | 0.0 | 0.0 | 0.01 | 0.02 | 0.02 | 96 | 1012.4 |
| 20260906013005 | 63 | 202 | 0.0 | 0.0 | 0.01 | 0.02 | 0.02 | 96 | 1012.3 |
| 20260906012503 | 63 | 202 | 0.0 | 0.0 | 0.01 | 0.02 | 0.02 | 96 | 1012.3 |
| 20260906012002 | 63 | 202 | 0.0 | 0.0 | 0.01 | 0.02 | 0.02 | 96 | 1012.3 |
| 20260906011502 | 63 | 201 | 0.0 | 0.0 | 0.01 | 0.02 | 0.02 | 96 | 1012.3 |
| 20260906011002 | 63 | 202 | 0.0 | 0.0 | 0.01 | 0.02 | 0.02 | 96 | 1012.3 |
| 20260906010501 | 63 | 201 | 0.0 | 0.0 | 0.01 | 0.02 | 0.02 | 95 | 1012.3 |
| 20260906010104 | 63 | 201 | 0.0 | 0.0 | 0.01 | 0.02 | 0.02 | 95 | 1012.2 |
| 20260906005559 | 63 | 202 | 0.0 | 0.0 | 0.01 | 0.02 | 0.02 | 95 | 1012.2 |
| 20260906005059 | 63 | 202 | 0.0 | 0.0 | 0.01 | 0.02 | 0.02 | 95 | 1012.1 |
| 20260906004601 | 63 | 201 | 0.0 | 0.0 | 0.00 | 0.01 | 0.01 | 95 | 1012.0 |
| 20260906004058 | 63 | 202 | 0.0 | 0.0 | 0.00 | 0.01 | 0.01 | 95 | 1012.1 |
| 20260906003558 | 63 | 202 | 0.0 | 0.0 | 0.00 | 0.01 | 0.01 | 95 | 1012.1 |
| 20260906003057 | 63 | 201 | 0.0 | 0.0 | 0.00 | 0.01 | 0.01 | 94 | 1011.9 |
| 20260906002559 | 63 | 202 | 0.0 | 0.0 | 0.00 | 0.01 | 0.01 | 94 | 1011.9 |
| 20260906002056 | 63 | 202 | 0.0 | 0.0 | 0.00 | 0.01 | 0.01 | 94 | 1011.8 |
| 20260906001555 | 63 | 201 | 0.0 | 0.0 | 0.00 | 0.01 | 0.01 | 94 | 1011.8 |
| 20260906001056 | 63 | 201 | 0.0 | 0.0 | 0.00 | 0.01 | 0.01 | 94 | 1011.8 |
| 20260906000555 | 63 | 202 | 0.0 | 0.0 | 0.00 | 0.01 | 0.01 | 93 | 1011.7 |
| 20260906000100 | 63 | 202 | 0.0 | 0.0 | 0.00 | 0.01 | 0.01 | 93 | 1011.7 |
| 20260905235554 | 63 | 201 | 0.0 | 0.0 | 0.00 | 0.01 | 0.01 | 93 | 1011.7 |
| 20260905235054 | 63 | 202 | 0.0 | 0.0 | 0.00 | 0.01 | 0.01 | 93 | 1011.7 |
| 20260905234555 | 63 | 202 | 0.0 | 0.0 | 0.00 | 0.01 | 0.01 | 93 | 1011.6 |
| 20260905234057 | 63 | 202 | 0.0 | 0.0 | 0.00 | 0.01 | 0.01 | 92 | 1011.5 |
| 20260905233552 | 63 | 201 | 0.0 | 0.0 | 0.00 | 0.01 | 0.01 | 91 | 1011.5 |
| 20260905233100 | 64 | 202 | 0.0 | 0.0 | 0.00 | 0.01 | 0.01 | 91 | 1011.4 |
| 20260905232552 | 64 | 202 | 0.0 | 0.0 | 0.00 | 0.01 | 0.01 | 90 | 1011.4 |
| 20260905232052 | 64 | 117 | 0.0 | 0.0 | 0.00 | 0.01 | 0.01 | 90 | 1011.4 |
| 20260905231556 | 64 | 66 | 0.0 | 0.0 | 0.00 | 0.01 | 0.01 | 89 | 1011.5 |
| 20260905231051 | 65 | 30 | 0.0 | 0.0 | 0.00 | 0.01 | 0.01 | 89 | 1011.4 |
| 20260905230550 | 65 | 30 | 0.0 | 0.0 | 0.00 | 0.01 | 0.01 | 88 | 1011.3 |
| 20260905230050 | 65 | 19 | 0.0 | 0.0 | 0.00 | 0.01 | 0.01 | 88 | 1011.3 |
| 20260905225550 | 65 | 19 | 0.0 | 0.0 | 0.00 | 0.01 | 0.01 | 88 | 1011.3 |
| 20260905225048 | 65 | 19 | 0.0 | 0.0 | 0.00 | 0.01 | 0.01 | 88 | 1011.2 |
| 20260905224549 | 65 | 51 | 0.0 | 0.0 | 0.00 | 0.01 | 0.01 | 88 | 1011.1 |
| 20260905224047 | 65 | 51 | 0.0 | 0.0 | 0.00 | 0.01 | 0.01 | 88 | 1011.1 |
| 20260905223546 | 65 | 51 | 0.0 | 0.0 | 0.00 | 0.01 | 0.01 | 88 | 1011.0 |
| 20260905223047 | 65 | 51 | 0.0 | 0.0 | 0.00 | 0.01 | 0.01 | 88 | 1011.0 |
| 20260905222548 | 65 | 45 | 0.0 | 0.0 | 0.00 | 0.01 | 0.01 | 88 | 1011.0 |
| 20260905222048 | 65 | 42 | 0.0 | 0.0 | 0.00 | 0.01 | 0.01 | 88 | 1011.0 |
| 20260905221600 | 66 | 69 | 0.0 | 0.0 | 0.00 | 0.01 | 0.01 | 88 | 1011.0 |
| 20260905221046 | 66 | 68 | 0.0 | 0.0 | 0.00 | 0.01 | 0.01 | 87 | 1011.0 |
| 20260905220545 | 66 | 68 | 0.0 | 1.0 | 0.00 | 0.01 | 0.01 | 87 | 1010.9 |
| 20260905220045 | 66 | 67 | 0.0 | 1.0 | 0.00 | 0.01 | 0.01 | 87 | 1010.9 |
| 20260905215543 | 66 | 51 | 0.0 | 0.0 | 0.00 | 0.01 | 0.01 | 88 | 1010.8 |
| 20260905215045 | 66 | 14 | 0.0 | 0.0 | 0.00 | 0.01 | 0.01 | 88 | 1010.7 |
| 20260905214542 | 66 | 27 | 0.0 | 1.0 | 0.00 | 0.01 | 0.01 | 87 | 1010.6 |
| 20260905214041 | 65 | 27 | 0.0 | 4.0 | 0.00 | 0.01 | 0.01 | 87 | 1010.6 |
| 20260905213540 | 65 | 360 | 0.0 | 2.0 | 0.00 | 0.01 | 0.01 | 87 | 1010.5 |
| 20260905213040 | 65 | 53 | 0.0 | 2.0 | 0.00 | 0.01 | 0.01 | 88 | 1010.4 |
| 20260905212543 | 65 | 134 | 0.0 | 5.0 | 0.00 | 0.01 | 0.01 | 88 | 1010.4 |
| 20260905212039 | 65 | 108 | 0.0 | 5.0 | 0.00 | 0.01 | 0.01 | 88 | 1010.4 |
| 20260905211538 | 65 | 35 | 0.0 | 4.0 | 0.00 | 0.01 | 0.01 | 88 | 1010.3 |
| 20260905211037 | 65 | 86 | 0.0 | 6.0 | 0.00 | 0.01 | 0.01 | 88 | 1010.2 |
| 20260905210540 | 65 | 26 | 1.0 | 8.0 | 0.00 | 0.01 | 0.01 | 88 | 1010.2 |
| 20260905210037 | 65 | 15 | 1.0 | 8.0 | 0.00 | 0.01 | 0.01 | 88 | 1010.1 |
| 20260905205537 | 65 | 114 | 3.0 | 6.0 | 0.00 | 0.01 | 0.01 | 89 | 1010.1 |
| 20260905205036 | 65 | 111 | 2.0 | 7.0 | 0.00 | 0.01 | 0.01 | 89 | 1010.1 |
| 20260905204540 | 65 | 39 | 2.0 | 8.0 | 0.00 | 0.01 | 0.01 | 88 | 1010.1 |
| 20260905204035 | 66 | 57 | 5.0 | 8.0 | 0.00 | 0.01 | 0.01 | 89 | 1010.1 |
| 20260905203535 | 66 | 55 | 2.0 | 8.0 | 0.00 | 0.01 | 0.01 | 89 | 1010.1 |